Погода в Шумихе

Погода в Шумихе : погода сейчас, прогноз погоды и архив. Всё, что Вы хотите узнать о погоде в Шумихе!

Хотите узнать прогноз погоды в Шумихе? Тогда Вам сюда: Погода в Шумихе

Поиск расширенной информации на нашем сайте:

Другие новости

Новости СМИ2

Главная страница сайта

Новости сайта

03.07.2017

Напоминаем, что на нашем специализированном сайте Метеоцентр.Азия вы можете получить высокодетализированные автоматические прогнозы погоды по пунктам России, СНГ и мира в авиационном формате (включающие направление и скорость ветра, видимость, явления погоды, количество и форму облачности, нижнюю и верхнюю границу облачности).

Рекомендуем: плитка под кожу

Погода в Шумихе - сегодня

Время (UTC), дата Ветер
(°,м/с) 
Видим.   Явления Облачность Т
(°С)
Тd
(°С)
f(%) Тe
(°С)
Pmin
(гПа)
dP
(гПа)
Po
(мм)
O2
(г/м3)
Тmin Tmax R s Состояние
почвы
18 14.08.17 080 (В) 20000 м    ясно 
+16.6 +9.8 64 +18  1021.5  1.5  750  283           
21 14.08.17 090 (В) 20000 м    ясно 
+13.7 +8.7 72 +14  1022  0.3  751  286           
00 15.08.17 080 (В) 20000 м    4/0 верхняя 
[Ci sp]
+12.1 +8.3 78 +13  1022.4  0.3  751  288           
06 15.08.17 110 (В) 20000 м    8/0 верхняя 
[Ci sp]
+22.3 +9 43 +22  1022.6  751  278           
09 15.08.17 140 (ЮВ) 20000 м    8/0 верхняя 
[Ci sp]
+24.5 +6.3 31 +25  1022.3  0.1  751  277           
12 15.08.17 120 (ЮВ) 20000 м    8/0 верхняя 
[Ci sp]
+25.2 +5.8 29 +25  1021.6  -0.7  751  276           
18 15.08.17 150 (ЮВ) 20000 м    4/0 верхняя 
[Ci sp]
+13.5 +11.3 87 +18  1022.5  0.2  751  286           
21 15.08.17 160 (Ю) 20000 м    ясно 
+12.4 +9.4 82 +14  1022.3  -0.3  751  288           
00 16.08.17 190 (Ю) 20000 м    3/0 средняя 
[Ac lent]
+12.4 +10.1 86 +14  1022  -0.3  750  287           
06 16.08.17 200 (Ю) 20000 м    3/0 верхняя 
[Ci sp]
+23.7 +11.1 45 +26  1021.2  -0.3  750  276           
09 16.08.17 250 (З) 20000 м    4/0 
[Cu med, cong]
+25.9 +8.6 33 +26  1020.4  -0.6  750  275           
12 16.08.17 310 (СЗ) 20000 м    8/8 600 м кучево-дожд. 
[Cb cap]
+25.4 +12.5 45 +30  1020.2  -0.2  750  274           
18 16.08.17 020 (С) 20000 м    3/3 600 м кучево-дожд. 
[Cb cap]
+17.7 +13 74 +23  1022.8  0.9  751  282           
21 16.08.17 040 (СВ) 20000 м    5/0 средняя 
[Ac trans]
+15.6 +12.8 83 +21  1023.7  0.8  752  284           
00 17.08.17 010 (С) 20000 м    6/0 средняя 
[Ac trans]
+13.9 +12.3 90 +18  1024.4  0.5  752  286           
06 17.08.17 010 (С) 20000 м    8/4 1000 м верхняя 
[Cu hum|Ci sp]
+20.8 +8 44 +21  1025  0.2  753  281           
09 17.08.17 360 (С) 20000 м    9/6 600 м верхняя 
[Cu med, cong|Ci sp]
+21.1 +6 37 +21  1024.4  -0.5  753  281           
12 17.08.17 350 (С) 20000 м    9/4 600 м средняя, верхняя 
[Cu med, cong|Ac trans|Ci sp]
+21.9 +5.3 34 +22  1023.6  -0.8  752  280           
18 17.08.17 350 (С) 20000 м    ясно 
+13.6 +8.5 71 +15  1025.6  0.8  753  288           
21 17.08.17 тихо ()   20000 м    ясно 
+9.7 +7.2 84 +10  1026.5  0.5  754  292           
00 18.08.17 340 (С) 20000 м    ясно 
+8.5 +6.9 90 +10  1027.1  0.5  754  294           
06 18.08.17 360 (С) 20000 м    8/8 600 м кучево-дожд. 
[Cb cap]
+17.8 +7.3 50 +19  1027.7  0.2  755  284           
09 18.08.17 020 (С) 20000 м    8/6 600 м кучево-дожд., верхняя 
[Cb cap|Ci sp]
+19.1 +4.5 38 +20  1027  -0.6  755  283           
12 18.08.17 040 (СВ) 20000 м    6/4 600 м кучево-дожд., верхняя 
[Cb cap|Ci sp]
+18.3 +4.7 41 +19  1026.8  -0.3  754  284           
18 18.08.17 190 (Ю) 20000 м    ясно 
+8.3 +6.7 90 +9  1027.3  0.2  754  294           
Время (UTC), дата Ветер
(°,м/с) 
Видим.   Явления Облачность Т
(°С)
Тd
(°С)
f(%) Тe
(°С)
Pmin
(гПа)
dP
(гПа)
Po
(мм)
O2
(г/м3)
Тmin Tmax R s Состояние
почвы

Для получения пояснительной информации подведите курсор к названию столбца.

ПОГОДА в Шумихе - архив

Всё, что Вы хотите узнать о погоде в Шумихе - удобно и подробно!

Выберите нужную дату (начиная с 1 января 2015* года) и нажмите кнопку "Найти".
Будут отображены архивные сводки погоды по пункту Шумиха, начиная с указанной даты.


Отображать данные в формате CSV (для использования в таблицах Excel)


Внимание! Наш архив погоды предназначен исключительно для личного некоммерческого использования в познавательных целях. Если Вам необходимы официальные справки о состоянии погоды (для производственных, юридических, коммерческих и т.п. целей), обращайтесь в органы Росгидромета.

*Примечание: данная дата относится к архиву по метеостанциям СССР (Россия, СНГ, Балтия).
Архив по метеостанциям Зарубежной Европы и Азии (кроме Китая) хранится 10 дней, по другим регионам земного шара (Китай, Африка, Америка, Австралия, Океания) - 1 день.

Шумиха - район местоположения метеостанции


Название, широта, долгота, высота метеостанции:
Шумиха 55.2°ш. 63.3°д. 178 м над ур. моря [Российская Федерация]

Дополнительная информация

В oтличие oт бoльшинства пoгoдных сайтoв мы публикуем пoдрoбную метеoинфoрмацию в детальнoм прoфессиoнальнoм фoрмате.

Характеристики температуры и влажнoсти вoздуха измеряются на высoте 2 м в тени вдали oт зданий и деревьев.
Скoрoсть ветра измеряется на высoте 10 м (на урoвне рoста челoвека скoрoсть ветра ниже в 1.5-2 раза). Если метеoстанция нахoдится в гoрoде или в лесу, тo скoрoсть ветра занижена на 2-4 м/с пo сравнению с oткрытым местoм. Скoрoсть ветра над акватoриями крупных рек и oзёр, а также на вершинах хoлмoв на 2-5 м/с выше, чем в oбычных услoвиях.
Атмoсфернoе давление в разных тoчках местнoсти мoжет значительнo oтличаться oт давления на метеoстанции, в зависимoсти oт услoвий рельефа (при пoдъёме на 10 м давление пoнижается примернo на 1 мм рт.ст.).